RESURS O1

Satellite information

Favourite Embed

Satellite Type and Status

PAYLOADIN ORBIT

Key statistics

Satellite RESURS O1 at a glance.

Uptime

11263

Days in orbit

Revolutions

≈ 14.8

Per day

Orbit

SSO

Sun Synchronous Orbit

Inclination

97.7

Latest

Satellite identification and parameters

Extended collection of information and parameters for RESURS O1.

Object identification

Identified? True

Debris? False

Object name: RESURS O1

International designator: 1994-074A

Object number (NORAD): 23342

Object ID (CCSDS): 23342

Country: COMMONWEALTH OF INDEPENDENT STATES (CIS)

Current information (Y/N): Y

RCS size: LARGE

Orbital parameters

Period: 97.003 minutes

Inclination: 97.6878 deg

SMA: 6993.341 km

Apoapsis: 615.956 km

Periapsis: 614.456 km

RAAN: 270.1574 deg

Eccentricy: 0.00010723

Argument of periapsis: 72.2562 deg

Mean anomaly: 287.8769 deg

Mean motion: 14.8448452 rev/day

Mean motion (dot): 0.00001615 rev/day2

B* drag term: 0.00019781832 1/REarth

Two-line elements (TLE)

Creation date: Sept. 3, 2025, 10:15 a.m.

Reference frame: TEME

Reference center: EARTH

Epoch: Sept. 3, 2025, 1:35 a.m. UTC

TLE line 0: 0 RESURS O1

TLE line 1: 1 23342U 94074A 25246.06609165 .00001615 00000-0 19782-3 0 9993

TLE line 2: 2 23342 97.6878 270.1574 0001072 72.2562 287.8769 14.84484520661326

Live tracking on map

Real-time ground track for satellite RESURS O1.

In-orbit conjunctions

A list of the most updated potential collisions computed for object RESURS O1.

Target Orbit TCA Probability of collision Miss distance Type
FENGYUN 1C DEB SSO 2025-08-23 21:48:40 0.0001976719 994.0 (m) DEBRIS
CZ-6A DEB LEO 2025-04-23 07:51:21 0.0002520207 473.0 (m) DEBRIS
SL-14 R/B LEO 2025-02-13 19:33:01 0.0005121777 722.0 (m) ROCKET BODY
COSMOS 2251 DEB LEO 2025-01-22 00:00:48 0.0002746308 706.0 (m) DEBRIS

Associated space launch

Resurs-O1 N3 or Resurs-O1 1 is the third earth observation satellite in the Russian Resurs-O1 program.

RESURS O1 was lifted into orbit during the mission ‘Zenit-2 | Resurs-O1’, on board a Zenit-2 space rocket.

The launch took place on Nov. 4, 1994, 5:47 a.m. from 45/1.

For more information about the launch, click the button.

Launch to space Zenit-2 | Resurs-O1
Zenit-2 | Resurs-O1

Agency: N/A

Status: Launch Successful

Launch date: Nov. 4, 1994, 5:47 a.m. UTC

Rocket: Zenit-2

Launch pad: 45/1

Location: Baikonur Cosmodrome, Republic of Kazakhstan

...

Latest news about this satellite

There are no fresh news available about this satellite. Check back as we update our databases every day.


Newsletter sign-up

Weekly statistics, charts and insights to help you stay on top of the space industry.